Location: Attana
(42.0476°N, 9.2776°E)
Time: 03:21:52
(UTC+00:00)

Daily predictions for brighter satellites

Satellite Brightness Start Highest point End
(mag) Time Altitude Azimuth Time Altitude Azimuth Time Altitude Azimuth
USA 267 4.2 00:01:12 10° E 00:07:19 44° NNE 00:13:27 10° NW
Cosmos 2227 Rocket 3.9 00:23:41 24° ENE 00:23:41 24° ENE 00:26:53 10° NE
NOSS 0 Rocket 4.5 00:22:42 10° NNW 00:28:03 55° NNE 00:28:03 55° NNE
COSMOS 2428 4.0 00:25:35 10° NNW 00:28:40 34° NNW 00:28:40 34° NNW
Cosmos 2360 Rocket 4.5 00:26:56 10° NW 00:27:54 14° NW 00:27:54 14° NW
Cosmos 2297 Rocket 3.5 00:39:26 34° ENE 00:39:26 34° ENE 00:43:21 10° NE
Cosmos 2219 Rocket 3.6 00:33:15 10° NNW 00:36:03 30° NNW 00:36:03 30° NNW
Cosmos 1605 Rocket 4.3 00:40:07 10° N 00:45:30 66° N 00:45:30 66° N
Resurs 1-4 Rocket 3.2 00:42:33 10° NNE 00:46:23 40° ENE 00:46:23 40° ENE
Cosmos 2056 Rocket 4.4 00:50:30 46° N 00:50:30 46° N 00:54:19 10° NNE
ATLAS 2AS CENTAUR R/B 3.0 00:53:43 10° NNW 01:01:26 71° NE 01:04:03 42° ESE
Cosmos 2237 Rocket 2.7 00:57:23 10° NNW 01:02:03 58° N 01:02:03 58° N
Cosmos 1980 4.2 00:59:08 10° NNW 01:03:29 54° N 01:03:29 54° N
SL-16 R/B 3.7 01:06:32 10° N 01:11:40 34° ENE 01:16:21 12° ESE
USA 215 4.0 01:10:34 10° NE 01:16:44 46° NNW 01:18:30 37° WNW
ARIANE 5 R/B 3.9 01:13:51 10° NE 01:18:28 31° E 01:18:55 31° ESE
Meteor 1-11 4.3 01:17:36 10° N 01:23:01 72° ENE 01:23:01 72° ENE
Cosmos 2333 Rocket 4.2 01:19:00 10° NW 01:20:24 16° NW 01:20:24 16° NW
Cosmos 2219 3.7 01:26:11 51° NW 01:26:11 51° NW 01:31:20 10° NNE
Cosmos 2082 4.0 01:25:57 59° ESE 01:25:57 59° ESE 01:31:30 10° NNE
Cosmos 1420 Rocket 4.3 01:27:40 64° N 01:27:40 64° N 01:32:10 10° NNE
CZ-2D R/B 2.3 01:21:51 10° N 01:26:40 67° NNW 01:26:40 67° NNW
SL-16 R/B 2.6 01:28:38 62° WNW 01:28:38 62° WNW 01:34:06 10° NNW
AQUA 4.4 01:23:44 10° NNE 01:27:27 54° NNE 01:27:27 54° NNE
ADEOS II 3.1 01:24:37 10° NNE 01:29:28 36° E 01:30:10 35° ESE
IRS-1D 3.7 01:24:33 10° NNE 01:29:25 68° ENE 01:29:25 68° ENE
Cosmos 1726 4.4 01:33:01 22° N 01:33:01 22° N 01:34:26 10° N
CBERS-1 4.1 01:31:08 10° NNE 01:35:43 72° N 01:35:43 72° N
H-2A R/B 4.1 01:41:13 19° NNW 01:41:13 19° NNW 01:42:34 10° NNW
Cosmos 1727 Rocket 4.3 01:41:52 49° WNW 01:41:52 49° WNW 01:47:56 10° N
Cosmos 2061 Rocket 4.2 01:38:24 10° N 01:44:51 72° E 01:47:09 42° SSE
SeaSat 1 2.8 01:41:07 10° NNE 01:45:35 55° NW 01:45:35 55° NW
Cosmos 1452 Rocket 3.6 01:46:37 65° NW 01:46:37 65° NW 01:51:31 10° NNE
Cosmos 2173 Rocket 3.9 01:42:37 10° N 01:48:54 80° W 01:49:48 66° SSW
USA 267 3.1 01:43:40 10° SE 01:50:08 65° SW 01:56:39 10° NW
Cosmos 2058 4.2 01:47:36 10° N 01:51:25 36° ENE 01:52:08 33° E
IRS-1C 3.9 01:47:29 10° NNE 01:52:52 90° WNW 01:53:11 80° SSW
Cosmos 1300 3.7 01:55:44 45° ENE 01:55:44 45° ENE 01:58:49 10° NNE
NPP 4.2 01:53:46 10° N 01:58:41 42° WNW 01:58:41 42° WNW
Cosmos 1812 Rocket 3.9 02:02:54 57° NNW 02:02:54 57° NNW 02:06:33 10° N
CZ-4B R/B 2.9 02:03:30 34° NNE 02:03:30 34° NNE 02:05:41 10° N
Cosmos 1000 Rocket 4.5 02:03:45 56° WSW 02:04:36 61° W 02:10:45 10° N
Cosmos 2227 Rocket 2.7 02:05:31 43° WNW 02:05:59 44° WNW 02:11:24 10° NNE
NOSS 3-4 (A) 3.7 02:00:00 10° NW 02:07:05 74° WSW 02:14:50 10° SSE
NOSS 3-4 (C) 3.7 02:00:05 10° NW 02:07:12 74° WSW 02:14:56 10° SSE
Cosmos 1242 Rocket 4.4 02:09:03 10° NNW 02:10:29 23° NNW 02:10:29 23° NNW
Cosmos 2016 Rocket 3.9 02:11:49 10° NNW 02:17:56 69° W 02:19:55 44° SSW
Cosmos 2100 Rocket 4.4 02:14:55 10° NNW 02:20:50 42° W 02:21:29 41° WSW
Cosmos 2297 Rocket 3.1 02:21:15 30° WNW 02:22:12 32° NW 02:27:16 10° N
Cosmos-2242 3.1 02:23:57 51° SSE 02:24:52 70° E 02:29:09 10° NNE
Resurs 1-4 Rocket 3.5 02:23:06 10° NNW 02:27:07 23° WNW 02:27:27 23° WNW
SL-08 R/B 4.0 02:27:54 37° W 02:27:54 37° W 02:31:55 10° NNW
Cosmos 1802 Rocket 4.2 02:21:24 10° NNW 02:27:17 48° W 02:28:36 42° SW
Cosmos 2233 Rocket 4.1 02:21:46 10° N 02:27:55 72° E 02:34:02 10° SSE
Cosmos 1850 Rocket 4.2 02:28:06 10° NNW 02:33:03 44° WSW 02:33:08 44° WSW
Cosmos 2123 Rocket 4.0 02:32:45 39° SW 02:34:58 60° W 02:41:10 10° N
Cosmos 1076 Rocket 4.1 02:31:49 10° NNW 02:35:16 39° WNW 02:35:16 39° WNW
Cosmos 1892 3.5 02:35:34 10° N 02:39:19 51° E 02:42:47 12° SSE
Cosmos 371 Rocket 3.7 02:37:22 28° S 02:39:47 61° ESE 02:44:36 10° NNE
Cosmos 1741 Rocket 4.5 02:39:05 10° NW 02:43:57 37° WSW 02:44:21 37° WSW
Cosmos 2237 Rocket 4.2 02:43:09 10° WNW 02:43:48 12° WNW 02:43:48 12° WNW
Cosmos 1603 4.3 02:41:43 10° NNW 02:47:16 57° ENE 02:52:50 10° SE
Cosmos 2151 2.9 02:43:14 10° N 02:47:28 83° E 02:50:41 17° S
Cosmos 1408 Rocket 4.1 02:45:24 10° N 02:49:51 61° E 02:54:14 10° SSE
ATLAS 2AS CENTAUR R/B 3.7 02:45:49 10° NW 02:51:18 25° WSW 02:51:18 25° WSW
RESURS DK-1 4.2 02:51:13 10° N 02:55:01 33° ENE 02:58:47 10° ESE
Cosmos 1302 Rocket 4.0 02:52:04 23° SSW 02:55:19 79° ESE 03:00:32 10° NNE
Meteor 2-1 Rocket 4.4 02:52:29 29° SW 02:55:23 57° WNW 03:01:08 10° N
Cosmos 1725 Rocket 4.3 02:49:53 10° NNW 02:55:43 44° W 02:58:55 25° SW
SL-16 R/B 2.7 02:50:38 10° NW 02:55:46 36° WSW 02:58:01 26° SSW
ARIANE 5 R/B 3.4 02:52:52 10° N 02:57:32 34° WNW 02:59:14 27° WSW
Cosmos 1447 Rocket 4.5 02:52:50 18° SSW 02:57:39 79° W 03:04:00 10° N
Intercosmos 25 Rocket 4.0 03:01:17 27° WNW 03:01:17 27° WNW 03:03:50 10° NNW
Cosmos 1689 Rocket 3.3 03:04:11 27° WNW 03:04:11 27° WNW 03:06:06 10° NNW
CZ-2C R/B 3.4 03:00:54 10° N 03:04:43 42° WNW 03:06:01 32° WSW
CZ-2D R/B 4.2 03:04:43 10° NW 03:06:25 11° NW 03:07:59 10° WNW
Cosmos 332 Rocket 3.7 03:05:02 22° SSW 03:08:09 85° WNW 03:12:59 10° NNE
ADEOS II 3.1 03:04:32 10° N 03:09:01 29° WNW 03:11:06 22° WSW
RUBIN 8/PSLV 4.5 03:05:43 10° N 03:10:00 75° WNW 03:12:57 20° SSW
ADEOS 3.6 03:06:38 10° NNE 03:11:53 88° ESE 03:16:57 11° SSW
Cosmos 1766 Rocket 3.9 03:12:10 10° NNW 03:16:27 44° W 03:19:58 14° SSW
Okean 3 Rocket 4.3 03:13:13 10° NNW 03:17:06 31° W 03:18:59 22° SW
PSLV R/B 3.5 03:14:13 10° NNE 03:18:35 89° ESE 03:22:55 10° SSW
Cosmos 304 Rocket 4.2 03:13:58 10° S 03:18:41 61° ESE 03:23:27 10° NNE
Cosmos 2263 Rocket 2.2 03:18:42 13° SSW 03:23:44 89° WNW 03:29:28 10° NNE
Cosmos 2058 4.5 03:25:24 10° NW 03:28:00 17° W 03:28:16 16° W
Cosmos 1455 2.3 03:26:20 16° SSW 03:29:06 53° W 03:32:46 10° N
DELTA 2 R/B(2) 4.4 03:36:24 19° WSW 03:38:20 46° S 03:41:07 10° E
Meteor 2-3 Rocket 3.9 03:36:49 10° N 03:42:27 78° E 03:48:00 10° SSE
Meteor 1-28 Rocket 4.4 03:40:47 14° SW 03:42:59 22° W 03:45:54 10° NW
Cosmos 2221 2.5 03:40:31 10° SSW 03:44:53 78° W 03:49:18 10° N
Cosmos 1825 2.1 03:41:41 10° NNW 03:45:28 68° W 03:49:13 10° S
Cosmos 1842 Rocket 3.8 03:41:13 10° SSW 03:45:31 51° W 03:49:49 10° N
IDEFIX/ARIANE 42P 2.7 03:43:13 10° N 03:48:20 57° WNW 03:53:28 10° SSW
Cosmos 1500 Rocket 3.6 03:52:03 10° NNW 03:56:17 55° W 04:00:29 10° S
Cosmos 1408 3.4 03:57:20 10° NNW 04:00:29 29° W 04:03:37 10° SSW
COSMOS 2441 4.4 03:56:42 10° N 04:01:29 71° WNW 04:06:15 10° SSW
Cosmos 1354 Rocket 4.0 03:58:55 10° NNW 04:04:16 83° WSW 04:09:32 10° SSE
Lacrosse 5 rocket 3.5 04:01:44 10° S 04:04:52 23° ESE 04:08:08 10° ENE
Cosmos 2346 Rocket 4.5 03:59:44 10° S 04:05:47 86° W 04:11:53 10° N
H-2A R/B 3.4 04:03:02 10° N 04:06:44 30° WNW 04:10:18 10° SW
CZ-3 R/B 3.9 03:48:44 10° SW 04:07:14 31° S 04:13:43 10° ESE
Meteor 2-10 Rocket 4.0 04:01:58 10° SSW 04:07:18 49° WNW 04:12:53 10° N
Meteor 2-2 Rocket 4.3 04:01:55 10° S 04:07:33 88° W 04:13:17 10° N
CZ-2C R/B 2.2 04:06:03 10° N 04:10:38 78° WNW 04:15:15 10° SSW
Cosmos 2034 Rocket 4.0 04:04:31 10° NNW 04:10:44 64° W 04:16:51 10° S
Cosmos 968 Rocket 3.5 04:05:46 10° NNW 04:10:55 69° WSW 04:16:04 10° S
Cosmos 1464 Rocket 4.4 04:06:50 10° NNW 04:12:41 44° W 04:18:35 10° SSW
MSX 4.0 04:07:08 10° N 04:12:46 56° WNW 04:18:23 10° SSW
